Weather History for Detroit Metro, MI

Change the Weather History Date:

Tuesday, June 25, 2013

  Actual Average Record
Temperature  
Mean Temperature 78 °F 72 °F  
Max Temperature 86 °F 82 °F 104 °F (1988)
Min Temperature 69 °F 62 °F 43 °F (1964)
Degree Days  
Heating Degree Days 0 0  
Month to date heating degree days 23 34  
Since 1 June heating degree days 23 34  
Since 1 July heating degree days 5929 6136  
Cooling Degree Days 13 7  
Month to date cooling degree days 128 127  
Year to date cooling degree days 231 175  
Since 1 June cooling degree days 128 127  
Growing Degree Days 28 (Base 50)    
Moisture  
Dew Point 67 °F    
Average Humidity 75    
Maximum Humidity 93    
Minimum Humidity 57    
Precipitation  
Precipitation 0.56 in 0.11 in 2.17 in (1968)
Month to date precipitation 3.99 2.97  
Year to date precipitation 18.84 15.51  
Snow  
Snow 0.00 in 0.00 in 0.00 in ()
Month to date snowfall 0.0 0.0  
Since 1 June snowfall 0.0 0.0  
Since 1 July snowfall 47.7 42.5  
Snow Depth 0.00 in    
Sea Level Pressure  
Sea Level Pressure 29.92 in    
Wind  
Wind Speed 10 mph (WSW)    
Max Wind Speed 22 mph    
Max Gust Speed 30 mph    
Visibility 9 miles    
Events Rain , Thunderstorm    
T = Trace of Precipitation, MM = Missing Value Source: NWS Daily Summary

Daily Weather History Graph

Daily Weather History Graph

Search for Another Location

Airport:

Trip Planner

Search our weather history database for the weather conditions in past years. The results will help you decide how hot, cold, wet, or windy it might be!

Date:

Astronomy

Jun. 25, 2013 Rise Set
Actual Time 5:58 AM EDT 9:13 PM EDT
Civil Twilight 5:23 AM EDT 9:48 PM EDT
Nautical Twilight 4:38 AM EDT 10:33 PM EDT
Astronomical Twilight 3:44 AM EDT 11:27 PM EDT
Moon 10:54 PM EDT (6/25) 8:40 AM EDT (6/25)
Length of Visible Light 16h 24m
Length of Day
15h 15m
Waning Gibbous, 93% of the Moon is Illuminated
Jun 25
Waning Gibbous
Jun 30
Last Quarter
Jul 8
New
Jul 15
First Quarter
Jul 22
Full

Hourly Weather History & Observations

Time (EDT) Temp. Heat Index Dew Point Humidity Pressure Visibility Wind Dir Wind Speed Gust Speed Precip Events Conditions
12:53 AM 75.9 °F - 68.0 °F 76% 29.94 in 9.0 mi SW 10.4 mph - 0.00 in Rain Light Rain
1:53 AM 75.0 °F - 64.0 °F 69% 29.93 in 10.0 mi SSW 10.4 mph - 0.00 in   Overcast
2:53 AM 73.0 °F - 64.0 °F 73% 29.92 in 10.0 mi SW 8.1 mph - N/A   Mostly Cloudy
3:53 AM 71.1 °F - 63.0 °F 75% 29.93 in 10.0 mi SW 16.1 mph - N/A   Mostly Cloudy
4:53 AM 70.0 °F - 63.0 °F 78% 29.94 in 10.0 mi SW 12.7 mph - N/A   Mostly Cloudy
5:53 AM 70.0 °F - 63.0 °F 78% 29.95 in 10.0 mi SW 9.2 mph - N/A   Overcast
6:53 AM 70.0 °F - 64.0 °F 81% 29.96 in 10.0 mi SSW 9.2 mph - N/A   Overcast
7:53 AM 70.0 °F - 64.0 °F 81% 29.99 in 10.0 mi West 8.1 mph - 0.00 in Rain Light Rain
8:06 AM 69.8 °F - 66.2 °F 88% 30.01 in 3.0 mi West 16.1 mph 26.5 mph 0.01 in Rain , Thunderstorm Thunderstorms and Rain
8:16 AM 69.8 °F - 66.2 °F 88% 30.02 in 2.0 mi West 20.7 mph 29.9 mph 0.03 in Rain , Thunderstorm Thunderstorms and Rain
8:45 AM 69.8 °F - 66.2 °F 88% 29.94 in 5.0 mi Calm Calm - 0.08 in Rain , Thunderstorm Thunderstorms and Rain
8:53 AM 69.1 °F - 66.0 °F 90% 29.96 in 5.0 mi South 11.5 mph - 0.09 in Rain , Thunderstorm Thunderstorms and Rain
9:13 AM 69.8 °F - 66.2 °F 88% 29.97 in 10.0 mi SSW 9.2 mph - 0.00 in Rain Light Rain
9:53 AM 70.0 °F - 66.0 °F 87% 29.97 in 10.0 mi WSW 8.1 mph - 0.00 in   Overcast
10:53 AM 70.0 °F - 66.0 °F 87% 29.91 in 10.0 mi South 8.1 mph - N/A   Overcast
11:53 AM 73.0 °F - 68.0 °F 84% 29.94 in 10.0 mi WSW 9.2 mph - N/A   Overcast
12:53 PM 79.0 °F - 68.0 °F 69% 29.94 in 10.0 mi SSW 17.3 mph - N/A   Overcast
1:28 PM 77.0 °F - 68.0 °F 74% 29.94 in 6.0 mi SW 11.5 mph - 0.01 in Rain , Thunderstorm Light Thunderstorms and Rain
1:53 PM 79.0 °F - 71.1 °F 77% 29.92 in 10.0 mi SW 10.4 mph - 0.06 in Thunderstorm Thunderstorm
2:00 PM 80.6 °F 84.6 °F 71.6 °F 74% 29.93 in 10.0 mi SW 9.2 mph - N/A   Mostly Cloudy
2:53 PM 81.0 °F 84.4 °F 70.0 °F 69% 29.90 in 10.0 mi SSW 12.7 mph - N/A   Mostly Cloudy
3:53 PM 84.0 °F 89.0 °F 71.1 °F 65% 29.83 in 10.0 mi SSW 12.7 mph 21.9 mph N/A   Scattered Clouds
4:53 PM 86.0 °F 91.5 °F 71.1 °F 61% 29.87 in 9.0 mi WSW 11.5 mph - N/A   Mostly Cloudy
5:53 PM 86.0 °F 90.1 °F 69.1 °F 57% 29.84 in 10.0 mi West 13.8 mph - N/A   Mostly Cloudy
6:53 PM 84.9 °F 88.8 °F 69.1 °F 59% 29.83 in 10.0 mi WNW 10.4 mph - N/A   Scattered Clouds
7:53 PM 82.0 °F 84.9 °F 68.0 °F 62% 29.84 in 10.0 mi NW 9.2 mph - N/A   Mostly Cloudy
8:53 PM 81.0 °F 83.8 °F 68.0 °F 65% 29.83 in 10.0 mi North 6.9 mph - N/A   Overcast
9:23 PM 80.6 °F 83.2 °F 68.0 °F 65% 29.85 in 10.0 mi NNW 6.9 mph - 0.00 in Rain , Thunderstorm Light Thunderstorms and Rain
9:53 PM 77.0 °F - 70.0 °F 79% 29.85 in 10.0 mi North 3.5 mph - 0.02 in Rain , Thunderstorm Light Thunderstorms and Rain
10:53 PM 75.0 °F - 71.1 °F 87% 29.87 in 5.0 mi West 4.6 mph - 0.08 in Rain , Thunderstorm Thunderstorms and Rain
11:53 PM 73.9 °F - 72.0 °F 93% 29.91 in 4.0 mi SW 11.5 mph - 0.15 in Rain , Thunderstorm Thunderstorms and Rain